Starlink 5670

operational
NORAD ID: 55341 Int'l Des: 2023-013 Owner: SPXS Country: US Constellation: starlink
LEOCIRCULAR

About Starlink 5670

Description loading...

Live Position

Loading 3D Globe...

Upcoming Passes

Altitude History

Altitude vs Time

uPlot chart will show altitude changes over time

Two-Line Element Set

1 55341U 23013L 26033.63447153 -.00000119 00000-0 62749-5 0 9999
2 55341 43.0042 131.0342 0001375 272.8174 87.2511 15.02533339166432
Epoch: Feb 2, 2026 • Age: 11 hours

Current Status

Altitude 565.1 km
Velocity 7.58 km/s
Sub-Earth Point -25.99°S, 179.89°W
Launch Date Jan 26, 2023
Age 3 years
Type internet

Technical Details

Classification Payload
Mass 305.00 kg
Dry Mass 290.00 kg
Total Mass 305.00 kg
Length 0.20 m
Diameter 2.80 m
Span 9.00 m
Shape Box + pan
Manufacturer SPXS
Bus Type Starlink
Phase Status In Orbit
Owner/State SPXS/US

Large Constellations

Loading constellations...